Terminal Aerodrome Forecast
Issued by NWS

Home | Current Version | Previous Version | Text Only | Print | Product List | Glossary On
Versions: 1 2 3 4 5 6 7 8 9 10 11 12 13 14 15 16 17 18 19 20 21 22 23 24 25 26
000
FTUS45 KSLC 181120
TAFSGU
TAF
KSGU 181120Z 1812/1912 13008KT P6SM FEW100 SCT150
     FM182000 24012G20KT P6SM SCT150
     FM190300 05007KT P6SM BKN150
      AMD LTD TO CLD VIS AND WIND=

USA.gov is the U.S. government's official web portal to all federal, state and local government web resources and services.